Year,Month,Day,Hour,Minute,Value (Times are PST for temperature in C)
2021,04,11,00,00,1.60
2021,04,11,00,01,1.60
2021,04,11,00,02,1.60
2021,04,11,00,03,1.60
2021,04,11,00,04,1.60
2021,04,11,00,05,1.60
2021,04,11,00,06,1.60
2021,04,11,00,07,1.60
2021,04,11,00,08,1.50
2021,04,11,00,09,1.50
2021,04,11,00,10,1.40
2021,04,11,00,11,1.40
2021,04,11,00,12,1.30
2021,04,11,00,13,1.30
2021,04,11,00,14,1.30
2021,04,11,00,15,1.40
2021,04,11,00,16,1.40
2021,04,11,00,17,1.40
2021,04,11,00,18,1.40
2021,04,11,00,19,1.50
2021,04,11,00,20,1.50
2021,04,11,00,21,1.50
2021,04,11,00,22,1.50
2021,04,11,00,23,1.50
2021,04,11,00,24,1.40
2021,04,11,00,25,1.40
2021,04,11,00,26,1.40
2021,04,11,00,27,1.30
2021,04,11,00,28,1.30
2021,04,11,00,29,1.20
2021,04,11,00,30,1.20
2021,04,11,00,31,1.20
2021,04,11,00,32,1.20
2021,04,11,00,33,1.20
2021,04,11,00,34,1.30
2021,04,11,00,35,1.30
2021,04,11,00,36,1.30
2021,04,11,00,37,1.30
2021,04,11,00,38,1.40
2021,04,11,00,39,1.40
2021,04,11,00,40,1.40
2021,04,11,00,41,1.40
2021,04,11,00,42,1.50
2021,04,11,00,43,1.50
2021,04,11,00,44,1.50
2021,04,11,00,45,1.50
2021,04,11,00,46,1.50
2021,04,11,00,47,1.50
2021,04,11,00,48,1.40
2021,04,11,00,49,1.40
2021,04,11,00,50,1.30
2021,04,11,00,51,1.30
2021,04,11,00,52,1.30
2021,04,11,00,53,1.30
2021,04,11,00,54,1.30
2021,04,11,00,55,1.30
2021,04,11,00,56,1.30
2021,04,11,00,57,1.30
2021,04,11,00,58,1.30
2021,04,11,00,59,1.40
2021,04,11,01,00,1.40
2021,04,11,01,01,1.40
2021,04,11,01,02,1.40
2021,04,11,01,03,1.30
2021,04,11,01,04,1.30
2021,04,11,01,05,1.30
2021,04,11,01,06,1.30
2021,04,11,01,07,1.30
2021,04,11,01,08,1.40
2021,04,11,01,09,1.40
2021,04,11,01,10,1.40
2021,04,11,01,11,1.40
2021,04,11,01,12,1.40
2021,04,11,01,13,1.50
2021,04,11,01,14,1.50
2021,04,11,01,15,1.50
2021,04,11,01,16,1.50
2021,04,11,01,17,1.50
2021,04,11,01,18,1.40
2021,04,11,01,19,1.40
2021,04,11,01,20,1.40
2021,04,11,01,21,1.40
2021,04,11,01,22,1.40
2021,04,11,01,23,1.40
2021,04,11,01,24,1.40
2021,04,11,01,25,1.40
2021,04,11,01,26,1.40
2021,04,11,01,27,1.40
2021,04,11,01,28,1.40
2021,04,11,01,29,1.30
2021,04,11,01,30,1.30
2021,04,11,01,31,1.30
2021,04,11,01,32,1.30
2021,04,11,01,33,1.30
2021,04,11,01,34,1.30
2021,04,11,01,35,1.30
2021,04,11,01,36,1.30
2021,04,11,01,37,1.30
2021,04,11,01,38,1.30
2021,04,11,01,39,1.30
2021,04,11,01,40,1.30
2021,04,11,01,41,1.30
2021,04,11,01,42,1.30
2021,04,11,01,43,1.30
2021,04,11,01,44,1.30
2021,04,11,01,45,1.30
2021,04,11,01,46,1.30
2021,04,11,01,47,1.30
2021,04,11,01,48,1.30
2021,04,11,01,49,1.30
2021,04,11,01,50,1.30
2021,04,11,01,51,1.30
2021,04,11,01,52,1.30
2021,04,11,01,53,1.30
2021,04,11,01,54,1.30
2021,04,11,01,55,1.40
2021,04,11,01,56,1.40
2021,04,11,01,57,1.40
2021,04,11,01,58,1.40
2021,04,11,01,59,1.40
2021,04,11,02,00,1.40
2021,04,11,02,01,1.30
2021,04,11,02,02,1.30
2021,04,11,02,03,1.30
2021,04,11,02,04,1.30
2021,04,11,02,05,1.30
2021,04,11,02,06,1.30
2021,04,11,02,07,1.40
2021,04,11,02,08,1.40
2021,04,11,02,09,1.40
2021,04,11,02,10,1.40
2021,04,11,02,11,1.40
2021,04,11,02,12,1.50
2021,04,11,02,13,1.50
2021,04,11,02,14,1.50
2021,04,11,02,15,1.50
2021,04,11,02,16,1.50
2021,04,11,02,17,1.50
2021,04,11,02,18,1.60
2021,04,11,02,19,1.60
2021,04,11,02,20,1.60
2021,04,11,02,21,1.60
2021,04,11,02,22,1.60
2021,04,11,02,23,1.60
2021,04,11,02,24,1.60
2021,04,11,02,25,1.60
2021,04,11,02,26,1.60
2021,04,11,02,27,1.60
2021,04,11,02,28,1.70
2021,04,11,02,29,1.70
2021,04,11,02,30,1.70
2021,04,11,02,31,1.70
2021,04,11,02,32,1.60
2021,04,11,02,33,1.60
2021,04,11,02,34,1.60
2021,04,11,02,35,1.60
2021,04,11,02,36,1.60
2021,04,11,02,37,1.50
2021,04,11,02,38,1.50
2021,04,11,02,39,1.50
2021,04,11,02,40,1.50
2021,04,11,02,41,1.50
2021,04,11,02,42,1.50
2021,04,11,02,43,1.50
2021,04,11,02,44,1.50
2021,04,11,02,45,1.50
2021,04,11,02,46,1.50
2021,04,11,02,47,1.60
2021,04,11,02,48,1.60
2021,04,11,02,49,1.60
2021,04,11,02,50,1.60
2021,04,11,02,51,1.60
2021,04,11,02,52,1.50
2021,04,11,02,53,1.50
2021,04,11,02,54,1.50
2021,04,11,02,55,1.50
2021,04,11,02,56,1.50
2021,04,11,02,57,1.40
2021,04,11,02,58,1.40
2021,04,11,02,59,1.40
2021,04,11,03,00,1.40
2021,04,11,03,01,1.40
2021,04,11,03,02,1.40
2021,04,11,03,03,1.30
2021,04,11,03,04,1.30
2021,04,11,03,05,1.30
2021,04,11,03,06,1.30
2021,04,11,03,07,1.30
2021,04,11,03,08,1.30
2021,04,11,03,09,1.30
2021,04,11,03,10,1.30
2021,04,11,03,11,1.30
2021,04,11,03,12,1.30
2021,04,11,03,13,1.30
2021,04,11,03,14,1.40
2021,04,11,03,15,1.40
2021,04,11,03,16,1.30
2021,04,11,03,17,1.30
2021,04,11,03,18,1.30
2021,04,11,03,19,1.30
2021,04,11,03,20,1.30
2021,04,11,03,21,1.20
2021,04,11,03,22,1.20
2021,04,11,03,23,1.20
2021,04,11,03,24,1.20
2021,04,11,03,25,1.20
2021,04,11,03,26,1.20
2021,04,11,03,27,1.20
2021,04,11,03,28,1.30
2021,04,11,03,29,1.30
2021,04,11,03,30,1.30
2021,04,11,03,31,1.30
2021,04,11,03,32,1.30
2021,04,11,03,33,1.30
2021,04,11,03,34,1.20
2021,04,11,03,35,1.20
2021,04,11,03,36,1.20
2021,04,11,03,37,1.20
2021,04,11,03,38,1.20
2021,04,11,03,39,1.20
2021,04,11,03,40,1.10
2021,04,11,03,41,1.10
2021,04,11,03,42,1.20
2021,04,11,03,43,1.20
2021,04,11,03,44,1.20
2021,04,11,03,45,1.20
2021,04,11,03,46,1.20
2021,04,11,03,47,1.20
2021,04,11,03,48,1.20
2021,04,11,03,49,1.10
2021,04,11,03,50,1.10
2021,04,11,03,51,1.10
2021,04,11,03,52,1.10
2021,04,11,03,53,1.10
2021,04,11,03,54,1.10
2021,04,11,03,55,1.10
2021,04,11,03,56,1.10
2021,04,11,03,57,1.10
2021,04,11,03,58,1.10
2021,04,11,03,59,1.10
2021,04,11,04,00,1.00
2021,04,11,04,01,1.00
2021,04,11,04,02,1.00
2021,04,11,04,03,1.00
2021,04,11,04,04,1.00
2021,04,11,04,08,0.90
2021,04,11,04,09,0.90
2021,04,11,04,10,0.90
2021,04,11,04,11,0.90
2021,04,11,04,12,0.90
2021,04,11,04,13,0.90
2021,04,11,04,14,0.90
2021,04,11,04,15,0.90
2021,04,11,04,16,0.90
2021,04,11,04,17,0.90
2021,04,11,04,18,0.90
2021,04,11,04,19,0.90
2021,04,11,04,20,0.90
2021,04,11,04,21,0.90
2021,04,11,04,22,0.90
2021,04,11,04,23,0.90
2021,04,11,04,24,0.90
2021,04,11,04,25,0.90
2021,04,11,04,26,0.90
2021,04,11,04,27,0.90
2021,04,11,04,28,0.90
2021,04,11,04,29,0.90
2021,04,11,04,30,0.90
2021,04,11,04,31,0.90
2021,04,11,04,32,0.90
2021,04,11,04,33,0.90
2021,04,11,04,34,0.90
2021,04,11,04,35,0.90
2021,04,11,04,36,0.90
2021,04,11,04,37,0.90
2021,04,11,04,38,0.90
2021,04,11,04,39,0.90
2021,04,11,04,40,0.90
2021,04,11,04,41,0.90
2021,04,11,04,42,0.90
2021,04,11,04,43,0.90
2021,04,11,04,44,0.90
2021,04,11,04,45,0.90
2021,04,11,04,46,0.90
2021,04,11,04,47,0.90
2021,04,11,04,48,0.90
2021,04,11,04,49,0.80
2021,04,11,04,50,0.80
2021,04,11,04,51,0.80
2021,04,11,04,52,0.80
2021,04,11,04,53,0.80
2021,04,11,04,54,0.80
2021,04,11,04,55,0.80
2021,04,11,04,56,0.80
2021,04,11,04,57,0.80
2021,04,11,04,58,0.80
2021,04,11,04,59,0.70
2021,04,11,05,00,0.70
2021,04,11,05,01,0.70
2021,04,11,05,02,0.70
2021,04,11,05,03,0.70
2021,04,11,05,04,0.70
2021,04,11,05,05,0.70
2021,04,11,05,06,0.70
2021,04,11,05,07,0.70
2021,04,11,05,08,0.70
2021,04,11,05,09,0.70
2021,04,11,05,10,0.70
2021,04,11,05,11,0.80
2021,04,11,05,12,0.80
2021,04,11,05,13,0.80
2021,04,11,05,14,0.80
2021,04,11,05,15,0.80
2021,04,11,05,16,0.80
2021,04,11,05,17,0.80
2021,04,11,05,18,0.70
2021,04,11,05,19,0.70
2021,04,11,05,20,0.70
2021,04,11,05,21,0.70
2021,04,11,05,22,0.70
2021,04,11,05,23,0.60
2021,04,11,05,24,0.60
2021,04,11,05,25,0.60
2021,04,11,05,26,0.60
2021,04,11,05,27,0.70
2021,04,11,05,28,0.80
2021,04,11,05,29,1.00
2021,04,11,05,30,1.10
2021,04,11,05,31,1.20
2021,04,11,05,32,1.20
2021,04,11,05,33,1.30
2021,04,11,05,34,1.30
2021,04,11,05,35,1.20
2021,04,11,05,36,1.20
2021,04,11,05,37,1.10
2021,04,11,05,38,1.10
2021,04,11,05,39,1.10
2021,04,11,05,40,1.00
2021,04,11,05,41,1.00
2021,04,11,05,42,0.90
2021,04,11,05,43,1.00
2021,04,11,05,44,1.20
2021,04,11,05,45,1.30
2021,04,11,05,46,1.50
2021,04,11,05,47,1.60
2021,04,11,05,48,1.80
2021,04,11,05,49,1.90
2021,04,11,05,50,2.00
2021,04,11,05,51,2.10
2021,04,11,05,52,2.20
2021,04,11,05,53,2.20
2021,04,11,05,54,2.30
2021,04,11,05,55,2.30
2021,04,11,05,56,2.30
2021,04,11,05,57,2.30
2021,04,11,05,58,2.30
2021,04,11,05,59,2.30
2021,04,11,06,00,2.30
2021,04,11,06,01,2.30
2021,04,11,06,02,2.30
2021,04,11,06,03,2.30
2021,04,11,06,04,2.30
2021,04,11,06,05,2.30
2021,04,11,06,06,2.30
2021,04,11,06,07,2.20
2021,04,11,06,08,2.10
2021,04,11,06,09,2.00
2021,04,11,06,10,2.00
2021,04,11,06,11,1.90
2021,04,11,06,12,1.80
2021,04,11,06,13,1.80
2021,04,11,06,14,1.80
2021,04,11,06,15,1.70
2021,04,11,06,16,1.70
2021,04,11,06,17,1.80
2021,04,11,06,18,1.90
2021,04,11,06,19,2.00
2021,04,11,06,20,2.10
2021,04,11,06,21,2.20
2021,04,11,06,22,2.30
2021,04,11,06,23,2.30
2021,04,11,06,24,2.40
2021,04,11,06,25,2.40
2021,04,11,06,26,2.50
2021,04,11,06,27,2.50
2021,04,11,06,28,2.60
2021,04,11,06,29,2.60
2021,04,11,06,30,2.70
2021,04,11,06,31,2.70
2021,04,11,06,32,2.70
2021,04,11,06,33,2.80
2021,04,11,06,34,2.80
2021,04,11,06,35,2.80
2021,04,11,06,36,2.80
2021,04,11,06,37,2.80
2021,04,11,06,38,2.80
2021,04,11,06,39,2.80
2021,04,11,06,40,2.80
2021,04,11,06,41,2.90
2021,04,11,06,42,2.90
2021,04,11,06,43,2.90
2021,04,11,06,44,2.90
2021,04,11,06,45,2.90
2021,04,11,06,46,2.90
2021,04,11,06,47,3.00
2021,04,11,06,48,3.00
2021,04,11,06,49,3.00
2021,04,11,06,50,3.00
2021,04,11,06,51,3.00
2021,04,11,06,52,3.00
2021,04,11,06,53,3.00
2021,04,11,06,54,3.10
2021,04,11,06,55,3.00
2021,04,11,06,56,3.00
2021,04,11,06,57,2.90
2021,04,11,06,58,2.90
2021,04,11,06,59,2.80
2021,04,11,07,00,2.70
2021,04,11,07,01,2.70
2021,04,11,07,02,2.60
2021,04,11,07,03,2.50
2021,04,11,07,04,2.40
2021,04,11,07,05,2.30
2021,04,11,07,06,2.20
2021,04,11,07,07,2.10
2021,04,11,07,08,2.10
2021,04,11,07,09,2.00
2021,04,11,07,10,2.00
2021,04,11,07,11,1.90
2021,04,11,07,12,1.90
2021,04,11,07,13,1.90
2021,04,11,07,14,2.00
2021,04,11,07,15,2.10
2021,04,11,07,16,2.30
2021,04,11,07,17,2.50
2021,04,11,07,18,2.70
2021,04,11,07,19,2.80
2021,04,11,07,20,3.00
2021,04,11,07,21,3.10
2021,04,11,07,22,3.10
2021,04,11,07,23,3.10
2021,04,11,07,24,3.00
2021,04,11,07,25,3.10
2021,04,11,07,26,3.10
2021,04,11,07,27,3.20
2021,04,11,07,28,3.30
2021,04,11,07,29,3.40
2021,04,11,07,30,3.40
2021,04,11,07,31,3.50
2021,04,11,07,32,3.60
2021,04,11,07,33,3.70
2021,04,11,07,34,3.80
2021,04,11,07,35,3.90
2021,04,11,07,36,3.90
2021,04,11,07,37,4.10
2021,04,11,07,38,4.20
2021,04,11,07,39,4.30
2021,04,11,07,40,4.30
2021,04,11,07,41,4.40
2021,04,11,07,42,4.40
2021,04,11,07,43,4.50
2021,04,11,07,44,4.50
2021,04,11,07,45,4.60
2021,04,11,07,46,4.60
2021,04,11,07,47,4.70
2021,04,11,07,48,4.70
2021,04,11,07,49,4.70
2021,04,11,07,50,4.70
2021,04,11,07,51,4.70
2021,04,11,07,52,4.80
2021,04,11,07,53,4.80
2021,04,11,07,54,4.80
2021,04,11,07,55,4.80
2021,04,11,07,56,4.80
2021,04,11,07,57,4.80
2021,04,11,07,58,4.80
2021,04,11,07,59,4.80
2021,04,11,08,00,4.80
2021,04,11,08,01,4.80
2021,04,11,08,02,4.90
2021,04,11,08,03,4.90
2021,04,11,08,04,4.90
2021,04,11,08,05,4.90
2021,04,11,08,06,4.90
2021,04,11,08,07,4.90
2021,04,11,08,08,4.90
2021,04,11,08,09,4.90
2021,04,11,08,10,4.90
2021,04,11,08,11,4.90
2021,04,11,08,12,4.90
2021,04,11,08,13,4.90
2021,04,11,08,14,4.90
2021,04,11,08,15,4.90
2021,04,11,08,16,4.90
2021,04,11,08,17,4.90
2021,04,11,08,18,4.90
2021,04,11,08,19,4.90
2021,04,11,08,20,4.90
2021,04,11,08,21,4.90
2021,04,11,08,22,4.90
2021,04,11,08,23,4.90
2021,04,11,08,24,4.90
2021,04,11,08,25,4.90
2021,04,11,08,26,4.80
2021,04,11,08,27,4.80
2021,04,11,08,28,4.80
2021,04,11,08,29,4.80
2021,04,11,08,30,4.90
2021,04,11,08,31,4.90
2021,04,11,08,32,4.90
2021,04,11,08,33,4.90
2021,04,11,08,34,4.90
2021,04,11,08,35,4.90
2021,04,11,08,36,4.90
2021,04,11,08,37,4.90
2021,04,11,08,38,5.00
2021,04,11,08,39,5.00
2021,04,11,08,40,5.00
2021,04,11,08,41,5.00
2021,04,11,08,42,5.00
2021,04,11,08,43,5.00
2021,04,11,08,44,5.10
2021,04,11,08,45,5.10
2021,04,11,08,46,5.10
2021,04,11,08,47,5.10
2021,04,11,08,48,5.10
2021,04,11,08,49,5.20
2021,04,11,08,50,5.20
2021,04,11,08,51,5.20
2021,04,11,08,52,5.20
2021,04,11,08,53,5.20
2021,04,11,08,54,5.30
2021,04,11,08,55,5.30
2021,04,11,08,56,5.30
2021,04,11,08,57,5.30
2021,04,11,08,58,5.30
2021,04,11,08,59,5.30
2021,04,11,09,00,5.40
2021,04,11,09,01,5.40
2021,04,11,09,02,5.40
2021,04,11,09,03,5.40
2021,04,11,09,04,5.40
2021,04,11,09,05,5.40
2021,04,11,09,06,5.40
2021,04,11,09,07,5.50
2021,04,11,09,08,5.50
2021,04,11,09,09,5.50
2021,04,11,09,10,5.60
2021,04,11,09,11,5.60
2021,04,11,09,12,5.60
2021,04,11,09,13,5.60
2021,04,11,09,14,5.60
2021,04,11,09,15,5.60
2021,04,11,09,16,5.60
2021,04,11,09,17,5.60
2021,04,11,09,18,5.70
2021,04,11,09,19,5.70
2021,04,11,09,20,5.70
2021,04,11,09,21,5.70
2021,04,11,09,22,5.70
2021,04,11,09,23,5.70
2021,04,11,09,24,5.80
2021,04,11,09,25,5.80
2021,04,11,09,26,5.80
2021,04,11,09,27,5.90
2021,04,11,09,28,6.00
2021,04,11,09,29,6.00
2021,04,11,09,30,6.00
2021,04,11,09,31,6.00
2021,04,11,09,32,5.90
2021,04,11,09,33,5.90
2021,04,11,09,34,5.80
2021,04,11,09,35,5.80
2021,04,11,09,36,5.80
2021,04,11,09,37,5.90
2021,04,11,09,38,5.90
2021,04,11,09,39,5.90
2021,04,11,09,40,6.00
2021,04,11,09,41,6.00
2021,04,11,09,42,6.00
2021,04,11,09,43,6.00
2021,04,11,09,44,6.00
2021,04,11,09,45,6.00
2021,04,11,09,46,6.00
2021,04,11,09,47,6.00
2021,04,11,09,48,6.10
2021,04,11,09,49,6.10
2021,04,11,09,50,6.10
2021,04,11,09,51,6.10
2021,04,11,09,52,6.10
2021,04,11,09,53,6.10
2021,04,11,09,54,6.10
2021,04,11,09,55,6.10
2021,04,11,09,56,6.20
2021,04,11,09,57,6.30
2021,04,11,09,58,6.30
2021,04,11,09,59,6.40
2021,04,11,10,00,6.40
2021,04,11,10,01,6.50
2021,04,11,10,02,6.60
2021,04,11,10,03,6.60
2021,04,11,10,04,6.60
2021,04,11,10,05,6.60
2021,04,11,10,06,6.60
2021,04,11,10,07,6.60
2021,04,11,10,08,6.60
2021,04,11,10,09,6.60
2021,04,11,10,10,6.60
2021,04,11,10,11,6.60
2021,04,11,10,12,6.60
2021,04,11,10,13,6.60
2021,04,11,10,14,6.60
2021,04,11,10,15,6.60
2021,04,11,10,16,6.60
2021,04,11,10,17,6.60
2021,04,11,10,18,6.60
2021,04,11,10,19,6.60
2021,04,11,10,20,6.60
2021,04,11,10,21,6.60
2021,04,11,10,22,6.70
2021,04,11,10,23,6.70
2021,04,11,10,24,6.70
2021,04,11,10,25,6.70
2021,04,11,10,26,6.70
2021,04,11,10,27,6.70
2021,04,11,10,28,6.70
2021,04,11,10,29,6.70
2021,04,11,10,30,6.70
2021,04,11,10,31,6.60
2021,04,11,10,32,6.70
2021,04,11,10,33,6.80
2021,04,11,10,34,6.90
2021,04,11,10,35,7.00
2021,04,11,10,36,7.10
2021,04,11,10,37,7.10
2021,04,11,10,38,7.20
2021,04,11,10,39,7.20
2021,04,11,10,40,7.30
2021,04,11,10,41,7.30
2021,04,11,10,42,7.40
2021,04,11,10,43,7.50
2021,04,11,10,44,7.60
2021,04,11,10,45,7.60
2021,04,11,10,46,7.70
2021,04,11,10,47,7.70
2021,04,11,10,48,7.70
2021,04,11,10,49,7.80
2021,04,11,10,50,7.80
2021,04,11,10,51,7.80
2021,04,11,10,52,7.80
2021,04,11,10,53,7.80
2021,04,11,10,54,7.70
2021,04,11,10,55,7.80
2021,04,11,10,56,7.80
2021,04,11,10,57,7.90
2021,04,11,10,58,7.90
2021,04,11,10,59,7.90
2021,04,11,11,00,7.90
2021,04,11,11,01,7.90
2021,04,11,11,02,7.90
2021,04,11,11,03,8.00
2021,04,11,11,04,8.00
2021,04,11,11,05,7.90
2021,04,11,11,06,7.90
2021,04,11,11,07,7.90
2021,04,11,11,08,8.00
2021,04,11,11,09,8.00
2021,04,11,11,10,8.10
2021,04,11,11,11,8.10
2021,04,11,11,12,8.10
2021,04,11,11,13,8.10
2021,04,11,11,14,8.10
2021,04,11,11,15,8.00
2021,04,11,11,16,8.00
2021,04,11,11,17,8.00
2021,04,11,11,18,8.00
2021,04,11,11,19,8.20
2021,04,11,11,20,8.20
2021,04,11,11,21,8.30
2021,04,11,11,22,8.30
2021,04,11,11,23,8.30
2021,04,11,11,24,8.20
2021,04,11,11,25,8.20
2021,04,11,11,26,8.20
2021,04,11,11,27,8.20
2021,04,11,11,28,8.20
2021,04,11,11,29,8.20
2021,04,11,11,30,8.20
2021,04,11,11,31,8.20
2021,04,11,11,32,8.30
2021,04,11,11,33,8.40
2021,04,11,11,34,8.40
2021,04,11,11,35,8.40
2021,04,11,11,36,8.30
2021,04,11,11,37,8.30
2021,04,11,11,38,8.20
2021,04,11,11,39,8.10
2021,04,11,11,40,8.10
2021,04,11,11,41,8.00
2021,04,11,11,42,7.90
2021,04,11,11,43,7.70
2021,04,11,11,44,7.50
2021,04,11,11,45,7.40
2021,04,11,11,46,7.30
2021,04,11,11,47,7.20
2021,04,11,11,48,7.20
2021,04,11,11,49,7.20
2021,04,11,11,50,7.20
2021,04,11,11,51,7.20
2021,04,11,11,52,7.30
2021,04,11,11,53,7.30
2021,04,11,11,54,7.40
2021,04,11,11,55,7.50
2021,04,11,11,56,7.60
2021,04,11,11,57,7.70
2021,04,11,11,58,7.80
2021,04,11,11,59,7.80
2021,04,11,12,00,7.80
2021,04,11,12,01,7.80
2021,04,11,12,02,7.90
2021,04,11,12,03,8.00
2021,04,11,12,04,8.10
2021,04,11,12,05,8.20
2021,04,11,12,06,8.30
2021,04,11,12,07,8.30
2021,04,11,12,08,8.30
2021,04,11,12,09,8.30
2021,04,11,12,10,8.30
2021,04,11,12,11,8.30
2021,04,11,12,12,8.30
2021,04,11,12,13,8.40
2021,04,11,12,14,8.30
2021,04,11,12,15,8.40
2021,04,11,12,16,8.40
2021,04,11,12,17,8.40
2021,04,11,12,18,8.30
2021,04,11,12,19,8.30
2021,04,11,12,20,8.30
2021,04,11,12,21,8.30
2021,04,11,12,22,8.30
2021,04,11,12,23,8.30
2021,04,11,12,24,8.20
2021,04,11,12,25,7.90
2021,04,11,12,26,7.80
2021,04,11,12,27,7.60
2021,04,11,12,28,7.50
2021,04,11,12,29,7.50
2021,04,11,12,30,7.60
2021,04,11,12,31,7.70
2021,04,11,12,32,7.80
2021,04,11,12,33,7.90
2021,04,11,12,34,7.90
2021,04,11,12,35,7.80
2021,04,11,12,36,7.80
2021,04,11,12,37,7.70
2021,04,11,12,38,7.70
2021,04,11,12,39,7.70
2021,04,11,12,40,7.80
2021,04,11,12,41,7.70
2021,04,11,12,42,7.70
2021,04,11,12,43,7.70
2021,04,11,12,44,7.70
2021,04,11,12,45,7.70
2021,04,11,12,46,7.90
2021,04,11,12,47,8.00
2021,04,11,12,48,8.20
2021,04,11,12,49,8.30
2021,04,11,12,50,8.40
2021,04,11,12,51,8.40
2021,04,11,12,52,8.30
2021,04,11,12,53,8.30
2021,04,11,12,54,8.40
2021,04,11,12,55,8.40
2021,04,11,12,56,8.40
2021,04,11,12,57,8.30
2021,04,11,12,58,8.20
2021,04,11,12,59,8.20
2021,04,11,13,00,8.10
2021,04,11,13,01,8.10
2021,04,11,13,02,8.00
2021,04,11,13,03,7.90
2021,04,11,13,04,7.80
2021,04,11,13,05,7.80
2021,04,11,13,06,7.80
2021,04,11,13,07,7.80
2021,04,11,13,08,7.70
2021,04,11,13,09,7.60
2021,04,11,13,10,7.60
2021,04,11,13,11,7.60
2021,04,11,13,12,7.60
2021,04,11,13,13,7.70
2021,04,11,13,14,7.70
2021,04,11,13,15,7.80
2021,04,11,13,16,7.80
2021,04,11,13,17,7.90
2021,04,11,13,18,7.90
2021,04,11,13,19,7.90
2021,04,11,13,20,7.90
2021,04,11,13,21,7.90
2021,04,11,13,22,7.80
2021,04,11,13,23,7.70
2021,04,11,13,24,7.70
2021,04,11,13,25,7.70
2021,04,11,13,26,7.70
2021,04,11,13,27,7.50
2021,04,11,13,28,7.50
2021,04,11,13,29,7.50
2021,04,11,13,30,7.50
2021,04,11,13,31,7.50
2021,04,11,13,32,7.50
2021,04,11,13,33,7.40
2021,04,11,13,34,7.30
2021,04,11,13,35,7.30
2021,04,11,13,36,7.30
2021,04,11,13,37,7.30
2021,04,11,13,38,7.30
2021,04,11,13,39,7.30
2021,04,11,13,40,7.40
2021,04,11,13,41,7.40
2021,04,11,13,42,7.40
2021,04,11,13,43,7.40
2021,04,11,13,44,7.50
2021,04,11,13,45,7.60
2021,04,11,13,46,7.60
2021,04,11,13,47,7.70
2021,04,11,13,48,7.80
2021,04,11,13,49,7.80
2021,04,11,13,50,7.80
2021,04,11,13,51,7.90
2021,04,11,13,52,8.00
2021,04,11,13,53,8.00
2021,04,11,13,54,8.00
2021,04,11,13,55,8.10
2021,04,11,13,56,8.00
2021,04,11,13,57,7.90
2021,04,11,13,58,7.70
2021,04,11,13,59,7.70
2021,04,11,14,00,7.70
2021,04,11,14,01,7.70
2021,04,11,14,02,7.80
2021,04,11,14,03,7.90
2021,04,11,14,04,8.00
2021,04,11,14,05,8.00
2021,04,11,14,06,8.10
2021,04,11,14,07,8.10
2021,04,11,14,08,8.10
2021,04,11,14,09,8.20
2021,04,11,14,10,8.20
2021,04,11,14,11,8.00
2021,04,11,14,12,7.90
2021,04,11,14,13,7.80
2021,04,11,14,14,7.80
2021,04,11,14,15,7.80
2021,04,11,14,16,7.80
2021,04,11,14,17,7.90
2021,04,11,14,18,7.90
2021,04,11,14,19,7.90
2021,04,11,14,20,8.00
2021,04,11,14,21,8.00
2021,04,11,14,22,7.90
2021,04,11,14,23,7.90
2021,04,11,14,24,8.00
2021,04,11,14,25,8.10
2021,04,11,14,26,8.10
2021,04,11,14,27,8.20
2021,04,11,14,28,8.10
2021,04,11,14,29,8.10
2021,04,11,14,30,8.10
2021,04,11,14,31,8.20
2021,04,11,14,32,8.30
2021,04,11,14,33,8.40
2021,04,11,14,34,8.50
2021,04,11,14,35,8.40
2021,04,11,14,36,8.40
2021,04,11,14,37,8.40
2021,04,11,14,38,8.30
2021,04,11,14,39,8.30
2021,04,11,14,40,8.30
2021,04,11,14,41,8.40
2021,04,11,14,42,8.40
2021,04,11,14,43,8.50
2021,04,11,14,44,8.50
2021,04,11,14,45,8.40
2021,04,11,14,46,8.40
2021,04,11,14,47,8.40
2021,04,11,14,48,8.50
2021,04,11,14,49,8.50
2021,04,11,14,50,8.60
2021,04,11,14,51,8.70
2021,04,11,14,52,8.90
2021,04,11,14,53,9.10
2021,04,11,14,54,9.10
2021,04,11,14,55,9.00
2021,04,11,14,56,8.90
2021,04,11,14,57,8.80
2021,04,11,14,58,8.80
2021,04,11,14,59,8.90
2021,04,11,15,00,9.00
2021,04,11,15,01,9.10
2021,04,11,15,02,9.20
2021,04,11,15,03,9.20
2021,04,11,15,04,9.20
2021,04,11,15,05,9.20
2021,04,11,15,06,9.20
2021,04,11,15,07,9.20
2021,04,11,15,08,9.30
2021,04,11,15,09,9.30
2021,04,11,15,10,9.30
2021,04,11,15,11,9.20
2021,04,11,15,12,9.10
2021,04,11,15,13,9.00
2021,04,11,15,14,8.90
2021,04,11,15,15,9.00
2021,04,11,15,16,9.10
2021,04,11,15,17,9.10
2021,04,11,15,18,9.20
2021,04,11,15,19,9.30
2021,04,11,15,20,9.40
2021,04,11,15,21,9.40
2021,04,11,15,22,9.40
2021,04,11,15,23,9.30
2021,04,11,15,24,9.20
2021,04,11,15,25,9.20
2021,04,11,15,26,9.00
2021,04,11,15,27,8.80
2021,04,11,15,28,8.60
2021,04,11,15,29,8.50
2021,04,11,15,30,8.50
2021,04,11,15,31,8.50
2021,04,11,15,32,8.60
2021,04,11,15,33,8.60
2021,04,11,15,34,8.50
2021,04,11,15,35,8.50
2021,04,11,15,36,8.50
2021,04,11,15,37,8.70
2021,04,11,15,38,8.80
2021,04,11,15,39,8.80
2021,04,11,15,40,8.80
2021,04,11,15,41,8.90
2021,04,11,15,42,8.90
2021,04,11,15,43,8.90
2021,04,11,15,44,8.90
2021,04,11,15,45,8.80
2021,04,11,15,46,8.70
2021,04,11,15,47,8.70
2021,04,11,15,48,8.70
2021,04,11,15,49,8.70
2021,04,11,15,50,8.60
2021,04,11,15,51,8.60
2021,04,11,15,52,8.60
2021,04,11,15,53,8.60
2021,04,11,15,54,8.60
2021,04,11,15,55,8.50
2021,04,11,15,56,8.40
2021,04,11,15,57,8.30
2021,04,11,15,58,8.30
2021,04,11,15,59,8.40
2021,04,11,16,00,8.40
2021,04,11,16,01,8.30
2021,04,11,16,02,8.30
2021,04,11,16,03,8.30
2021,04,11,16,04,8.30
2021,04,11,16,05,8.40
2021,04,11,16,06,8.50
2021,04,11,16,07,8.50
2021,04,11,16,08,8.60
2021,04,11,16,09,8.50
2021,04,11,16,10,8.50
2021,04,11,16,11,8.40
2021,04,11,16,12,8.30
2021,04,11,16,13,8.20
2021,04,11,16,14,8.10
2021,04,11,16,15,8.10
2021,04,11,16,16,8.20
2021,04,11,16,17,8.30
2021,04,11,16,18,8.50
2021,04,11,16,19,8.60
2021,04,11,16,20,8.70
2021,04,11,16,21,8.80
2021,04,11,16,22,9.00
2021,04,11,16,23,9.10
2021,04,11,16,24,9.00
2021,04,11,16,25,8.90
2021,04,11,16,26,8.80
2021,04,11,16,27,8.80
2021,04,11,16,28,8.90
2021,04,11,16,29,8.90
2021,04,11,16,30,8.90
2021,04,11,16,31,8.90
2021,04,11,16,32,8.90
2021,04,11,16,33,8.80
2021,04,11,16,34,8.70
2021,04,11,16,35,8.80
2021,04,11,16,36,8.80
2021,04,11,16,37,8.80
2021,04,11,16,38,8.90
2021,04,11,16,39,8.90
2021,04,11,16,40,8.90
2021,04,11,16,41,8.90
2021,04,11,16,42,8.90
2021,04,11,16,43,8.90
2021,04,11,16,44,8.90
2021,04,11,16,45,9.00
2021,04,11,16,46,9.10
2021,04,11,16,47,9.10
2021,04,11,16,48,9.10
2021,04,11,16,49,9.10
2021,04,11,16,50,9.00
2021,04,11,16,51,8.90
2021,04,11,16,52,8.90
2021,04,11,16,53,8.90
2021,04,11,16,54,8.90
2021,04,11,16,55,8.90
2021,04,11,16,56,8.90
2021,04,11,16,57,9.00
2021,04,11,16,58,9.00
2021,04,11,16,59,9.10
2021,04,11,17,00,9.20
2021,04,11,17,01,9.20
2021,04,11,17,02,9.20
2021,04,11,17,03,9.30
2021,04,11,17,04,9.40
2021,04,11,17,05,9.40
2021,04,11,17,06,9.50
2021,04,11,17,07,9.70
2021,04,11,17,08,9.80
2021,04,11,17,09,9.80
2021,04,11,17,10,9.80
2021,04,11,17,11,9.80
2021,04,11,17,12,9.80
2021,04,11,17,13,9.90
2021,04,11,17,14,9.90
2021,04,11,17,15,10.00
2021,04,11,17,16,10.10
2021,04,11,17,17,10.10
2021,04,11,17,18,10.00
2021,04,11,17,19,10.00
2021,04,11,17,20,9.90
2021,04,11,17,21,9.80
2021,04,11,17,22,9.70
2021,04,11,17,23,9.60
2021,04,11,17,24,9.50
2021,04,11,17,25,9.30
2021,04,11,17,26,9.20
2021,04,11,17,27,9.10
2021,04,11,17,28,9.00
2021,04,11,17,29,8.90
2021,04,11,17,30,8.90
2021,04,11,17,31,9.00
2021,04,11,17,32,9.00
2021,04,11,17,33,9.00
2021,04,11,17,34,9.10
2021,04,11,17,35,9.10
2021,04,11,17,36,9.10
2021,04,11,17,37,9.10
2021,04,11,17,38,9.20
2021,04,11,17,39,9.20
2021,04,11,17,40,9.20
2021,04,11,17,41,9.30
2021,04,11,17,42,9.40
2021,04,11,17,43,9.40
2021,04,11,17,44,9.40
2021,04,11,17,45,9.40
2021,04,11,17,46,9.30
2021,04,11,17,47,9.20
2021,04,11,17,48,9.00
2021,04,11,17,49,9.00
2021,04,11,17,50,8.90
2021,04,11,17,51,8.80
2021,04,11,17,52,8.80
2021,04,11,17,53,8.80
2021,04,11,17,54,8.70
2021,04,11,17,55,8.70
2021,04,11,17,56,8.70
2021,04,11,17,57,8.60
2021,04,11,17,58,8.60
2021,04,11,17,59,8.60
2021,04,11,18,00,8.70
2021,04,11,18,01,8.70
2021,04,11,18,02,8.70
2021,04,11,18,03,8.60
2021,04,11,18,04,8.60
2021,04,11,18,05,8.60
2021,04,11,18,06,8.50
2021,04,11,18,07,8.50
2021,04,11,18,08,8.50
2021,04,11,18,09,8.40